• In Hungary
  • List of Countries
  • For 7 days
  • Water Temperature
  • Satellite Maps
  • Weather Map
  • News
  • Weather Widgets
  • user-avatar
    Login

    Hourly Weather Kireevka

    Today, 18 December, Monday

    Time Temperature Precipitation Wind Pressure Humidity
    00:00 +3°C° 0 mm 6 mps 755 mmHg 84%
    01:00 +3°C° 0.2 mm 6 mps 754 mmHg 85%
    02:00 +3°C° 0.2 mm 6 mps 754 mmHg 85%
    03:00 +3°C° 0.2 mm 6 mps 754 mmHg 85%
    04:00 +3°C° 0.1 mm 6 mps 754 mmHg 86%
    05:00 +3°C° 0.1 mm 6 mps 753 mmHg 86%
    06:00 +4°C° 0.1 mm 6 mps 753 mmHg 86%
    07:00 +4°C° 0.1 mm 7 mps 753 mmHg 87%
    08:00 +4°C° 0.1 mm 7 mps 753 mmHg 87%
    09:00 +4°C° 0.1 mm 7 mps 753 mmHg 88%
    10:00 +4°C° 0.2 mm 7 mps 753 mmHg 86%
    11:00 +5°C° 0.2 mm 7 mps 753 mmHg 85%
    12:00 +5°C° 0.2 mm 7 mps 753 mmHg 84%
    13:00 +6°C° 0.5 mm 7 mps 752 mmHg 83%
    14:00 +6°C° 0.5 mm 7 mps 752 mmHg 83%
    15:00 +6°C° 0.5 mm 7 mps 752 mmHg 83%
    16:00 +6°C° 0 mm 7 mps 752 mmHg 82%
    17:00 +6°C° 0 mm 7 mps 752 mmHg 82%
    18:00 +6°C° 0 mm 7 mps 753 mmHg 81%
    19:00 +7°C° 0.1 mm 6 mps 753 mmHg 84%
    20:00 +7°C° 0.1 mm 5 mps 753 mmHg 87%
    21:00 +7°C° 0.1 mm 5 mps 753 mmHg 90%
    22:00 +7°C° 0.3 mm 4 mps 753 mmHg 91%
    23:00 +6°C° 0.3 mm 4 mps 753 mmHg 91%

    Tomorrow, 19 December, Tuesday

    Time Temperature Precipitation Wind Pressure Humidity
    00:00 +7°C° 0.3 mm 3 mps 754 mmHg 91%
    01:00 +7°C° 0.4 mm 3 mps 754 mmHg 91%
    02:00 +7°C° 0.4 mm 3 mps 754 mmHg 90%
    03:00 +6°C° 0.4 mm 2 mps 754 mmHg 89%
    04:00 +6°C° 0.4 mm 2 mps 754 mmHg 89%
    05:00 +6°C° 0.4 mm 2 mps 754 mmHg 89%
    06:00 +6°C° 0.4 mm 2 mps 754 mmHg 89%
    07:00 +6°C° 0.9 mm 2 mps 755 mmHg 89%
    08:00 +5°C° 0.9 mm 2 mps 755 mmHg 90%
    09:00 +6°C° 0.9 mm 1 mps 755 mmHg 90%
    10:00 +5°C° 0.8 mm 2 mps 756 mmHg 89%
    11:00 +5°C° 0.8 mm 2 mps 756 mmHg 87%
    12:00 +5°C° 0.8 mm 2 mps 756 mmHg 85%
    13:00 +5°C° 0.1 mm 2 mps 756 mmHg 82%
    14:00 +5°C° 0.1 mm 2 mps 756 mmHg 79%
    15:00 +6°C° 0.1 mm 2 mps 756 mmHg 76%
    16:00 +5°C° 0 mm 2 mps 757 mmHg 78%
    17:00 +4°C° 0 mm 2 mps 757 mmHg 80%
    18:00 +3°C° 0 mm 2 mps 757 mmHg 82%
    19:00 +3°C° 0 mm 2 mps 757 mmHg 82%
    20:00 +3°C° 0 mm 2 mps 757 mmHg 83%
    21:00 +2°C° 0 mm 2 mps 758 mmHg 83%
    22:00 +2°C° 0 mm 2 mps 758 mmHg 83%
    23:00 +2°C° 0 mm 2 mps 758 mmHg 82%

    Day after tomorrow, 20 December, Wednesday

    Time Temperature Precipitation Wind Pressure Humidity
    00:00 +3°C° 0 mm 1 mps 758 mmHg 82%
    01:00 +3°C° 0 mm 1 mps 759 mmHg 82%
    02:00 +3°C° 0 mm 1 mps 759 mmHg 81%
    03:00 +3°C° 0 mm 1 mps 759 mmHg 81%
    04:00 +3°C° 0 mm 1 mps 759 mmHg 81%
    05:00 +3°C° 0 mm 1 mps 759 mmHg 81%
    06:00 +3°C° 0 mm 1 mps 759 mmHg 81%
    07:00 +3°C° 0 mm 1 mps 760 mmHg 81%
    08:00 +3°C° 0 mm 1 mps 760 mmHg 81%
    09:00 +3°C° 0 mm 1 mps 761 mmHg 80%
    10:00 +4°C° 0 mm 1 mps 761 mmHg 77%
    11:00 +4°C° 0 mm 1 mps 761 mmHg 73%
    12:00 +5°C° 0 mm 1 mps 761 mmHg 69%
    13:00 +5°C° 0 mm 1 mps 761 mmHg 69%
    14:00 +5°C° 0 mm 1 mps 761 mmHg 69%
    15:00 +5°C° 0 mm 1 mps 761 mmHg 70%
    16:00 +5°C° 0 mm 1 mps 761 mmHg 73%
    17:00 +4°C° 0 mm 1 mps 761 mmHg 76%
    18:00 +4°C° 0 mm 1 mps 761 mmHg 79%
    19:00 +4°C° 0.1 mm 1 mps 761 mmHg 81%
    20:00 +4°C° 0.1 mm 1 mps 761 mmHg 83%
    21:00 +4°C° 0.1 mm 1 mps 762 mmHg 85%
    22:00 +4°C° 0 mm 1 mps 761 mmHg 86%
    23:00 +4°C° 0 mm 1 mps 761 mmHg 87%

    21 December, Thursday

    Time Temperature Precipitation Wind Pressure Humidity
    00:00 +4°C° 0 mm 1 mps 761 mmHg 89%
    01:00 +4°C° 0.2 mm 1 mps 761 mmHg 90%
    02:00 +4°C° 0.2 mm 1 mps 761 mmHg 90%
    03:00 +4°C° 0.2 mm 1 mps 761 mmHg 91%
    04:00 +4°C° 0.3 mm 1 mps 761 mmHg 92%
    05:00 +3°C° 0.3 mm 2 mps 761 mmHg 92%
    06:00 +3°C° 0.3 mm 2 mps 761 mmHg 92%
    07:00 +3°C° 0.4 mm 2 mps 761 mmHg 92%
    08:00 +3°C° 0.4 mm 2 mps 761 mmHg 92%
    09:00 +3°C° 0.4 mm 2 mps 761 mmHg 91%
    10:00 +3°C° 0.5 mm 2 mps 761 mmHg 90%
    11:00 +3°C° 0.5 mm 2 mps 761 mmHg 88%
    12:00 +3°C° 0.5 mm 2 mps 761 mmHg 86%
    13:00 +3°C° 0.2 mm 2 mps 761 mmHg 84%
    14:00 +2°C° 0.2 mm 3 mps 761 mmHg 83%
    15:00 +2°C° 0.2 mm 3 mps 760 mmHg 81%
    16:00 +2°C° 0 mm 3 mps 760 mmHg 82%
    17:00 +2°C° 0 mm 2 mps 761 mmHg 84%
    18:00 +1°C° 0 mm 2 mps 761 mmHg 85%
    19:00 +1°C° 0 mm 2 mps 761 mmHg 85%
    20:00 -1°C° 0 mm 2 mps 760 mmHg 85%
    21:00 -1°C° 0 mm 2 mps 760 mmHg 84%
    22:00 -1°C° 0 mm 2 mps 760 mmHg 84%
    23:00 -2°C° 0 mm 2 mps 760 mmHg 83%

    22 December, Friday

    Time Temperature Precipitation Wind Pressure Humidity
    00:00 -2°C° 0 mm 2 mps 760 mmHg 82%
    01:00 -2°C° 0 mm 2 mps 760 mmHg 82%
    02:00 -2°C° 0 mm 2 mps 759 mmHg 81%
    03:00 -2°C° 0 mm 2 mps 759 mmHg 80%
    04:00 -3°C° 0 mm 2 mps 759 mmHg 79%
    05:00 -3°C° 0 mm 2 mps 759 mmHg 79%
    06:00 -3°C° 0 mm 2 mps 759 mmHg 78%
    07:00 -3°C° 0 mm 2 mps 758 mmHg 76%
    08:00 -3°C° 0 mm 2 mps 758 mmHg 75%
    09:00 -3°C° 0 mm 2 mps 758 mmHg 73%
    10:00 -2°C° 0 mm 2 mps 758 mmHg 68%
    11:00 -2°C° 0 mm 2 mps 757 mmHg 63%
    12:00 -1°C° 0 mm 2 mps 757 mmHg 58%
    13:00 -1°C° 0 mm 2 mps 757 mmHg 57%
    14:00 -1°C° 0 mm 2 mps 756 mmHg 57%
    15:00 -1°C° 0 mm 2 mps 756 mmHg 56%
    16:00 -1°C° 0 mm 2 mps 756 mmHg 60%
    17:00 -2°C° 0 mm 2 mps 756 mmHg 64%
    18:00 -2°C° 0 mm 2 mps 756 mmHg 68%
    19:00 -3°C° 0 mm 2 mps 756 mmHg 69%
    20:00 -3°C° 0 mm 2 mps 756 mmHg 70%
    21:00 -3°C° 0 mm 2 mps 756 mmHg 71%
    22:00 -3°C° 0 mm 2 mps 756 mmHg 73%
    23:00 -3°C° 0 mm 2 mps 755 mmHg 74%

    23 December, Saturday

    Time Temperature Precipitation Wind Pressure Humidity
    00:00 -3°C° 0 mm 2 mps 755 mmHg 75%
    01:00 -3°C° 0 mm 2 mps 755 mmHg 77%
    02:00 -4°C° 0 mm 3 mps 754 mmHg 78%
    03:00 -4°C° 0 mm 3 mps 754 mmHg 80%
    04:00 -4°C° 0 mm 3 mps 754 mmHg 80%
    05:00 -4°C° 0 mm 4 mps 753 mmHg 81%
    06:00 -4°C° 0 mm 4 mps 753 mmHg 81%
    07:00 -3°C° 0 mm 4 mps 752 mmHg 79%
    08:00 -4°C° 0 mm 5 mps 752 mmHg 77%
    09:00 -4°C° 0 mm 5 mps 751 mmHg 74%
    10:00 -2°C° 0 mm 5 mps 751 mmHg 73%
    11:00 -3°C° 0 mm 6 mps 750 mmHg 71%
    12:00 -2°C° 0 mm 6 mps 750 mmHg 69%
    13:00 -1°C° 0.1 mm 5 mps 749 mmHg 73%
    14:00 -1°C° 0.1 mm 5 mps 748 mmHg 76%
    15:00 -1°C° 0.1 mm 4 mps 748 mmHg 79%
    16:00 -1°C° 0.3 mm 4 mps 748 mmHg 83%
    17:00 0°C° 0.3 mm 3 mps 748 mmHg 87%
    18:00 0°C° 0.3 mm 3 mps 747 mmHg 91%
    19:00 0°C° 0.1 mm 3 mps 748 mmHg 91%
    20:00 -2°C° 0.1 mm 4 mps 748 mmHg 91%
    21:00 -2°C° 0.1 mm 4 mps 748 mmHg 91%
    22:00 -2°C° 0 mm 4 mps 748 mmHg 91%
    23:00 -2°C° 0 mm 4 mps 749 mmHg 90%
    Show more